DW5145 Weather Reports


Display with metric or nautical units.
time (UTC)temp
F
wind
direction
speed
MPH
gust
MPH
rain 1hr
in
rain 24hr
in
rain mn
in
humidity
%
barometer
mb
20181021083043 70 101 6.0 8.0 0.00 0.00 0.00 25 1012.0
20181021081525 70 142 6.0 9.0 0.00 0.00 0.00 26 1012.0
20181021080049 72 109 4.0 5.0 0.00 0.00 0.00 23 1012.1
20181021074525 73 80 3.0 5.0 0.00 0.00 0.00 23 1012.1
20181021073046 73 82 5.0 7.0 0.00 0.00 0.00 23 1012.1
20181021071522 74 112 3.0 5.0 0.00 0.00 0.00 21 1012.2
20181021070023 73 148 0.0 6.0 0.00 0.00 0.00 22 1012.2
20181021064535 74 146 5.0 9.0 0.00 0.00 0.00 21 1012.3
20181021063010 74 146 3.0 8.0 0.00 0.00 0.00 21 1012.3
20181021061535 74 67 9.0 13.0 0.00 0.00 0.00 21 1012.3
20181021060031 76 132 5.0 14.0 0.00 0.00 0.00 19 1012.2
20181021054507 76 344 11.0 21.0 0.00 0.00 0.00 19 1012.0
20181021053014 76 328 17.0 24.0 0.00 0.00 0.00 19 1012.1
20181021051510 75 331 18.0 22.0 0.00 0.00 0.00 19 1012.1
20181021050023 74 301 12.0 22.0 0.00 0.00 0.00 20 1012.1
20181021044504 74 306 20.0 25.0 0.00 0.00 0.00 21 1012.2
20181021043016 74 298 21.0 26.0 0.00 0.00 0.00 22 1012.1
20181021041516 73 308 17.0 27.0 0.00 0.00 0.00 23 1012.2
20181021040011 73 317 23.0 30.0 0.00 0.00 0.00 22 1012.2
20181021034506 73 317 22.0 28.0 0.00 0.00 0.00 22 1012.3
20181021033005 73 312 23.0 27.0 0.00 0.00 0.00 21 1012.1
20181021030126 70 317 14.0 24.0 0.00 0.00 0.00 25 1012.2
20181021024656 69 280 13.0 20.0 0.00 0.00 0.00 28 1012.3
20181021023211 70 246 12.0 19.0 0.00 0.00 0.00 26 1012.2
20181021021707 71 275 12.0 17.0 0.00 0.00 0.00 27 1012.2
20181021020112 72 296 13.0 20.0 0.00 0.00 0.00 25 1012.0
20181021014714 72 282 12.0 17.0 0.00 0.00 0.00 24 1012.0
20181021013234 72 295 13.0 17.0 0.00 0.00 0.00 26 1011.8
20181021011622 72 313 10.0 17.0 0.00 0.00 0.00 25 1011.7
20181021010134 72 302 9.0 12.0 0.00 0.00 0.00 26 1011.7
20181021004625 73 269 9.0 12.0 0.00 0.00 0.00 25 1011.7
20181021003117 74 301 6.0 15.0 0.00 0.00 0.00 23 1011.7
20181021001642 75 281 9.0 13.0 0.00 0.00 0.00 21 1011.7
20181021000137 77 306 7.0 13.0 0.00 0.00 0.00 20 1011.8
20181020234617 77 323 6.0 10.0 0.00 0.00 0.00 19 1011.9
20181020233126 77 288 6.0 14.0 0.00 0.00 0.00 20 1012.0
20181020231630 79 321 7.0 13.0 0.00 0.00 0.00 19 1012.0
20181020230101 78 243 7.0 11.0 0.00 0.00 0.00 19 1012.1
20181020224602 78 275 5.0 12.0 0.00 0.00 0.00 19 1012.2
20181020223115 79 271 4.0 11.0 0.00 0.00 0.00 19 1012.2
20181020221603 78 249 8.0 11.0 0.00 0.00 0.00 19 1012.3
20181020220140 78 241 7.0 14.0 0.00 0.00 0.00 19 1012.3
20181020214547 80 240 5.0 9.0 0.00 0.00 0.00 18 1012.5
20181020213112 79 240 3.0 9.0 0.00 0.00 0.00 19 1012.5
20181020211619 78 237 10.0 17.0 0.00 0.00 0.00 19 1012.5
20181020210100 80 226 6.0 12.0 0.00 0.00 0.00 19 1012.5
20181020204547 79 238 8.0 21.0 0.00 0.00 0.00 19 1012.8
20181020203035 79 202 8.0 11.0 0.00 0.00 0.00 18 1013.0
20181020201553 80 231 4.0 12.0 0.00 0.00 0.00 19 1013.2
20181020200059 80 268 1.0 10.0 0.00 0.00 0.00 18 1013.5
20181020194532 80 51 3.0 17.0 0.00 0.00 0.00 19 1013.6
20181020193024 82 63 2.0 15.0 0.00 0.00 0.00 18 1013.7
20181020191529 81 58 6.0 13.0 0.00 0.00 0.00 18 1014.3
20181020190024 80 146 3.0 10.0 0.00 0.00 0.00 19 1014.4
20181020184516 79 107 10.0 18.0 0.00 0.00 0.00 18 1014.6
20181020183026 79 81 7.0 17.0 0.00 0.00 0.00 19 1014.7
20181020181516 77 63 7.0 15.0 0.00 0.00 0.00 20 1014.7
20181020180019 77 92 9.0 18.0 0.00 0.00 0.00 19 1014.8
20181020174547 77 80 10.0 16.0 0.00 0.00 0.00 19 1014.8
20181020173015 78 101 6.0 15.0 0.00 0.00 0.00 19 1014.8
20181020171555 77 54 8.0 17.0 0.00 0.00 0.00 19 1015.0
20181020170011 76 67 10.0 19.0 0.00 0.00 0.00 19 1015.0
20181020164509 76 74 9.0 19.0 0.00 0.00 0.00 20 1015.1
20181020163014 76 100 11.0 18.0 0.00 0.00 0.00 20 1015.0
20181020161505 76 92 12.0 24.0 0.00 0.00 0.00 20 1014.9
20181020160205 75 91 19.0 24.0 0.00 0.00 0.00 20 1014.8
20181020154610 75 107 15.0 19.0 0.00 0.00 0.00 20 1014.6
20181020153200 74 94 14.0 23.0 0.00 0.00 0.00 21 1014.6
20181020151626 73 84 13.0 23.0 0.00 0.00 0.00 21 1014.5
20181020150144 73 82 15.0 22.0 0.00 0.00 0.00 21 1014.3
20181020144628 73 69 14.0 27.0 0.00 0.00 0.00 22 1014.3
20181020143153 71 75 16.0 24.0 0.00 0.00 0.00 22 1014.3
20181020141623 71 89 15.0 19.0 0.00 0.00 0.00 23 1014.3
20181020140235 71 115 13.0 16.0 0.00 0.00 0.00 22 1014.2
20181020134611 72 108 13.0 21.0 0.00 0.00 0.00 21 1014.3
20181020133303 71 56 14.0 18.0 0.00 0.00 0.00 22 1014.2
20181020131602 71 55 9.0 15.0 0.00 0.00 0.00 22 1014.2
20181020130122 73 88 8.0 14.0 0.00 0.00 0.00 20 1014.3
20181020124610 71 82 6.0 8.0 0.00 0.00 0.00 21 1014.3
20181020123112 72 71 7.0 10.0 0.00 0.00 0.00 20 1014.3
20181020121551 72 99 2.0 3.0 0.00 0.00 0.00 20 1014.3
20181020120052 74 5 0.0 5.0 0.00 0.00 0.00 19 1014.3
20181020114602 73 57 4.0 6.0 0.00 0.00 0.00 20 1014.3
20181020113105 73 61 5.0 7.0 0.00 0.00 0.00 20 1014.3
20181020111602 73 67 7.0 9.0 0.00 0.00 0.00 20 1014.3
20181020110104 72 53 9.0 10.0 0.00 0.00 0.00 20 1014.3
20181020104613 72 79 9.0 11.0 0.00 0.00 0.00 20 1014.2
20181020103106 72 65 8.0 12.0 0.00 0.00 0.00 20 1014.3
20181020101540 73 65 7.0 10.0 0.00 0.00 0.00 20 1014.3
20181020100111 73 49 8.0 10.0 0.00 0.00 0.00 20 1014.3
20181020094540 72 31 9.0 16.0 0.00 0.00 0.00 20 1014.5
20181020093139 72 60 10.0 17.0 0.00 0.00 0.00 20 1014.6
20181020090045 74 317 1.0 5.0 0.00 0.00 0.00 20 1014.6
20181020084534 74 43 3.0 6.0 0.00 0.00 0.00 19 1014.7